Hourly Weather Roundup
Issued by NWS Central Illinois

Home | Current Version | Previous Version | Text Only | Print | Product List | Glossary Off
Versions: 1 2 3 4 5 6 7 8 9 10 11 12 13 14 15 16 17 18 19 20 21 22 23 24 25 26 27 28 29 30 31 32 33 34 35 36 37 38 39 40 41 42 43 44 45 46 47 48 49 50

000
NZUS43 KILX 011610
HWRILX

AREA WEATHER ROUNDUP
NATIONAL WEATHER SERVICE, LINCOLN IL
1100 AM CDT TUE SEP 01 2015


CITY           SKY/WX    TMP DP  RH WIND       PRES   REMARKS
BLOOMINGTON    SUNNY     85  74  69 S8        30.11S HX  92
CHAMPAIGN      LGT RAIN  70  67  90 SE7       30.14S
DANVILLE       LGT RAIN  67  66  96 NW3       30.13F
DECATUR        MOSUNNY   81  70  69 SE10      30.12R HX  84
EFFINGHAM      PTSUNNY   80  66  62 SE9       30.16S HX  82
FLORA          PTSUNNY   81  69  66 SE5       30.14F HX  84
GALESBURG      SUNNY     84  73  69 S9        30.06R HX  89
JACKSONVILLE   SUNNY     86  72  62 W6        30.08S HX  92
LACON          SUNNY     83  73  70 S6        30.05S HX  89
LAWRENCEVILLE  PTSUNNY   74  71  91 SE5       30.15F
LITCHFIELD     SUNNY     83  69  62 SW5       30.11F HX  86
$$


CITY           SKY/WX    TMP DP  RH WIND       PRES   REMARKS
LINCOLN        MOSUNNY   87  70  57 SW3       30.08S HX  92
MACOMB         SUNNY     85  71  62 SW8       30.08S HX  90
MATTOON        CLOUDY    73  65  75 S5        30.13F
MT CARMEL AP   MOSUNNY   79  68  69 N3        30.14F HX  81
OLNEY-NOBLE AP MOSUNNY   79  70  73 SE5       30.14F HX  81
PARIS          TSTM      69  68  96 CALM      30.16R
PEORIA         SUNNY     87  72  60 SW5       30.07S HX  93
PONTIAC        SUNNY     83  76  77 S5        30.10R HX  91
RANTOUL        CLOUDY    73  69  87 S5        30.16R
ROBINSON       LGT RAIN  71  69  95 SE3       30.14F
SPRINGFIELD    SUNNY     86  72  62 W6        30.09S HX  92
TAYLORVILLE    SUNNY     82  72  69 SW7       30.10F HX  87
$$

...REGIONAL REPORTS...


CITY           SKY/WX    TMP DP  RH WIND       PRES   REMARKS
CHICAGO O`HARE MOSUNNY   82  73  74 SW7       30.05S HX  87
KANKAKEE       CLOUDY    78  70  74 S16G24    30.12R HX  81
MOLINE         SUNNY     85  71  63 W9        30.02S HX  90
MOUNT STERLING SUNNY     83  71  65 S7        30.07S HX  88
MOUNT VERNON   MOSUNNY   84  70  61 S7        30.14F HX  88
PITTSFIELD     SUNNY     86  70  58 SW5       30.09S HX  90
QUINCY         SUNNY     84  69  60 W8        30.07R HX  88
ROCKFORD       SUNNY     82  73  74 SW5       30.04F HX  87
$$


CITY           SKY/WX    TMP DP  RH WIND       PRES   REMARKS
BURLINGTON     SUNNY     84  72  67 SW9       30.04S HX  89
CEDAR RAPIDS   SUNNY     80  73  79 S10       30.00S HX  84
DES MOINES     MOSUNNY   83  70  64 SW9       29.97F HX  87
KIRKSVILLE     SUNNY     83  69  62 SW9       30.06F HX  86
OTTUMWA        SUNNY     82  72  71 SW15      30.00S HX  87
ST LOUIS       SUNNY     87  69  54 SW8       30.10S HX  91
$$


CITY           SKY/WX    TMP DP  RH WIND       PRES   REMARKS
TERRE HAUTE    CLOUDY    73  64  73 SW7       30.15S
EVANSVILLE     PTSUNNY   84  67  56 VRB3      30.15S HX  86
INDIANAPOLIS   PTSUNNY   83  68  60 SW8       30.15R HX  86
LAFAYETTE      MOSUNNY   80  67  64 W13G18    30.13R HX  82
MADISON        MOSUNNY   83  70  64 SW8       30.01S HX  87
MILWAUKEE      SUNNY     83  72  69 SW8       30.02F HX  88
$$





USA.gov is the U.S. government's official web portal to all federal, state and local government web resources and services.